QPF
0.01 0.01 0.01 0.01 0.00 0.00 0.00 0.00 0.00 0.00 0.00 0.00 0.00 0.00 0.00 0.00 0.00 0.00 0.00 0.00 0.00 0.00 0.01 0.01 0.01 0.02 0.02 0.02 0.02 0.03 0.03 0.03 0.03 0.02 0.02 0.01 0.01 0.03 0.03 0.03 0.03 0.03 0.04 0.04
0.01 0.01 0.00 0.00 0.00 0.01 0.01 0.01 0.00 0.00 0.00 0.00 0.00 0.00 0.01 0.01 0.01 0.01 0.01 0.01 0.00 0.00 0.00 0.01 0.01 0.02 0.03 0.03 0.03 0.03 0.03 0.03 0.02 0.02 0.02 0.02 0.02 0.03 0.04 0.03 0.02 0.02 0.02 0.03
0.00 0.00 0.00 0.00 0.01 0.01 0.01 0.01 0.01 0.00 0.00 0.00 0.00 0.00 0.00 0.01 0.01 0.01 0.01 0.01 0.01 0.00 0.01 0.01 0.01 0.01 0.02 0.03 0.03 0.03 0.03 0.03 0.03 0.02 0.02 0.01 0.01 0.02 0.02 0.02 0.02 0.02 0.02 0.02
0.01 0.00 0.00 0.01 0.01 0.01 0.01 0.01 0.01 0.01 0.01 0.02 0.01 0.01 0.00 0.00 0.01 0.01 0.01 0.01 0.01 0.01 0.01 0.01 0.01 0.01 0.02 0.02 0.02 0.03 0.04 0.03 0.03 0.03 0.03 0.02 0.02 0.02 0.02 0.02 0.02 0.02 0.02 0.03
0.01 0.00 0.00 0.00 0.00 0.00 0.00 0.00 0.01 0.01 0.02 0.02 0.01 0.01 0.00 0.00 0.00 0.01 0.01 0.01 0.01 0.01 0.01 0.01 0.02 0.02 0.02 0.02 0.02 0.03 0.04 0.04 0.03 0.03 0.04 0.03 0.03 0.02 0.02 0.03 0.02 0.02 0.02 0.03
0.01 0.00 0.00 0.00 0.00 0.00 0.01 0.01 0.01 0.01 0.03 0.02 0.01 0.01 0.00 0.00 0.01 0.01 0.01 0.01 0.01 0.01 0.01 0.01 0.02 0.02 0.02 0.02 0.02 0.04 0.05 0.04 0.03 0.02 0.03 0.03 0.03 0.03 0.03 0.03 0.03 0.03 0.04 0.05
0.01 0.01 0.01 0.01 0.01 0.01 0.01 0.02 0.03 0.03 0.02 0.01 0.00 0.01 0.01 0.00 0.00 0.01 0.01 0.01 0.01 0.01 0.01 0.01 0.02 0.02 0.02 0.02 0.03 0.04 0.05 0.04 0.04 0.02 0.02 0.03 0.03 0.03 0.03 0.03 0.02 0.02 0.03 0.04
0.02 0.01 0.01 0.01 0.01 0.02 0.02 0.02 0.03 0.03 0.01 0.00 0.00 0.00 0.00 0.00 0.00 0.01 0.01 0.01 0.01 0.01 0.01 0.01 0.02 0.02 0.02 0.02 0.03 0.04 0.04 0.03 0.03 0.02 0.02 0.02 0.03 0.03 0.03 0.03 0.03 0.02 0.02 0.03
0.02 0.01 0.01 0.00 0.01 0.02 0.02 0.02 0.02 0.02 0.02 0.01 0.01 0.00 0.00 0.00 0.00 0.00 0.00 0.01 0.01 0.01 0.01 0.01 0.02 0.02 0.02 0.03 0.04 0.05 0.04 0.02 0.02 0.01 0.01 0.01 0.01 0.02 0.03 0.03 0.03 0.02 0.02 0.02
0.02 0.01 0.01 0.00 0.01 0.01 0.01 0.01 0.02 0.03 0.02 0.01 0.01 0.00 0.00 0.00 0.00 0.00 0.01 0.01 0.01 0.01 0.01 0.01 0.02 0.02 0.02 0.03 0.04 0.05 0.04 0.02 0.02 0.01 0.01 0.01 0.01 0.01 0.01 0.02 0.02 0.02 0.02 0.01
0.02 0.02 0.01 0.01 0.01 0.01 0.01 0.02 0.03 0.02 0.02 0.01 0.01 0.00 0.00 0.00 0.00 0.01 0.01 0.01 0.01 0.01 0.01 0.01 0.01 0.02 0.02 0.02 0.03 0.04 0.03 0.03 0.02 0.01 0.01 0.01 0.01 0.01 0.01 0.01 0.01 0.01 0.01 0.01
0.03 0.02 0.02 0.01 0.00 0.00 0.01 0.02 0.02 0.03 0.02 0.01 0.01 0.00 0.00 0.00 0.01 0.01 0.01 0.01 0.01 0.01 0.01 0.01 0.01 0.01 0.01 0.01 0.02 0.02 0.02 0.01 0.02 0.01 0.01 0.01 0.01 0.01 0.01 0.01 0.00 0.00 0.00 0.00
0.04 0.05 0.05 0.03 0.01 0.01 0.01 0.01 0.01 0.02 0.02 0.01 0.01 0.00 0.00 0.01 0.01 0.00 0.00 0.01 0.01 0.01 0.01 0.01 0.01 0.01 0.01 0.01 0.01 0.01 0.01 0.01 0.01 0.01 0.01 0.01 0.01 0.01 0.01 0.01 0.00 0.00 0.01 0.00
0.05 0.07 0.05 0.03 0.01 0.01 0.01 0.00 0.00 0.01 0.02 0.01 0.01 0.01 0.01 0.01 0.01 0.00 0.00 0.00 0.00 0.01 0.01 0.01 0.01 0.01 0.01 0.01 0.00 0.00 0.00 0.00 0.00 0.00 0.00 0.00 0.00 0.01 0.01 0.00 0.00 0.01 0.01 0.01
0.04 0.06 0.03 0.02 0.01 0.01 0.00 0.00 0.00 0.00 0.01 0.01 0.00 0.00 0.01 0.01 0.01 0.00 0.01 0.01 0.00 0.00 0.00 0.00 0.01 0.01 0.01 0.01 0.01 0.00 0.00 0.00 0.00 0.00 0.01 0.00 0.00 0.00 0.00 0.00 0.00 0.00 0.01 0.01
0.04 0.04 0.02 0.01 0.01 0.01 0.01 0.01 0.00 0.01 0.01 0.01 0.00 0.00 0.01 0.01 0.01 0.00 0.00 0.01 0.00 0.00 0.00 0.00 0.01 0.01 0.01 0.01 0.01 0.00 0.00 0.00 0.00 0.00 0.00 0.01 0.01 0.01 0.01 0.01 0.01 0.00 0.00 0.01
0.06 0.05 0.04 0.02 0.01 0.01 0.02 0.01 0.01 0.01 0.02 0.01 0.01 0.01 0.01 0.01 0.01 0.01 0.01 0.01 0.01 0.00 0.00 0.00 0.01 0.01 0.01 0.01 0.01 0.00 0.00 0.00 0.00 0.00 0.00 0.01 0.01 0.01 0.01 0.01 0.01 0.00 0.00 0.01
0.04 0.04 0.04 0.03 0.02 0.02 0.02 0.01 0.01 0.01 0.02 0.01 0.01 0.01 0.01 0.02 0.02 0.02 0.01 0.01 0.01 0.01 0.01 0.01 0.01 0.01 0.01 0.00 0.01 0.00 0.00 0.00 0.00 0.01 0.01 0.01 0.01 0.01 0.01 0.01 0.01 0.01 0.00 0.00
0.03 0.04 0.04 0.04 0.03 0.01 0.01 0.01 0.01 0.01 0.01 0.01 0.01 0.01 0.01 0.02 0.02 0.03 0.02 0.01 0.01 0.01 0.01 0.01 0.01 0.01 0.00 0.00 0.00 0.00 0.00 0.00 0.00 0.00 0.01 0.01 0.01 0.01 0.01 0.01 0.01 0.01 0.00 0.00
0.03 0.04 0.05 0.04 0.03 0.01 0.01 0.00 0.00 0.00 0.01 0.00 0.01 0.01 0.01 0.01 0.03 0.04 0.03 0.02 0.01 0.01 0.01 0.01 0.01 0.01 0.00 0.00 0.00 0.00 0.00 0.00 0.00 0.00 0.01 0.01 0.01 0.01 0.01 0.01 0.01 0.01 0.00 0.00
0.03 0.05 0.04 0.03 0.03 0.01 0.00 0.00 0.00 0.00 0.00 0.00 0.00 0.01 0.01 0.01 0.02 0.03 0.03 0.03 0.02 0.02 0.02 0.02 0.01 0.00 0.00 0.00 0.00 0.00 0.00 0.00 0.00 0.00 0.01 0.01 0.01 0.01 0.01 0.01 0.01 0.01 0.00 0.00
0.01 0.02 0.02 0.02 0.03 0.01 0.00 0.00 0.01 0.01 0.00 0.00 0.00 0.00 0.01 0.01 0.01 0.01 0.01 0.02 0.03 0.03 0.03 0.02 0.01 0.00 0.00 0.00 0.00 0.00 0.00 0.00 0.00 0.00 0.01 0.01 0.01 0.01 0.01 0.01 0.01 0.01 0.01 0.01
0.02 0.02 0.02 0.01 0.01 0.01 0.01 0.01 0.01 0.01 0.00 0.00 0.00 0.00 0.00 0.00 0.00 0.01 0.01 0.01 0.02 0.03 0.03 0.02 0.01 0.00 0.00 0.00 0.00 0.00 0.00 0.00 0.00 0.00 0.01 0.01 0.01 0.01 0.01 0.01 0.01 0.01 0.01 0.01
0.02 0.02 0.02 0.01 0.01 0.01 0.00 0.00 0.00 0.00 0.00 0.00 0.00 0.00 0.00 0.00 0.00 0.00 0.01 0.01 0.01 0.02 0.02 0.03 0.01 0.00 0.00 0.00 0.00 0.00 0.00 0.00 0.00 0.01 0.01 0.01 0.01 0.01 0.01 0.01 0.01 0.01 0.01 0.01
0.01 0.01 0.01 0.01 0.01 0.01 0.00 0.00 0.00 0.00 0.00 0.00 0.00 0.00 0.00 0.00 0.00 0.00 0.01 0.01 0.01 0.01 0.01 0.02 0.01 0.01 0.00 0.00 0.00 0.00 0.00 0.00 0.00 0.00 0.00 0.01 0.01 0.00 0.00 0.00 0.01 0.01 0.01 0.01
0.02 0.02 0.02 0.02 0.02 0.01 0.01 0.00 0.00 0.00 0.00 0.00 0.00 0.00 0.00 0.00 0.01 0.01 0.01 0.01 0.01 0.01 0.01 0.01 0.01 0.01 0.00 0.00 0.00 0.00 0.00 0.00 0.00 0.00 0.00 0.00 0.00 0.00 0.00 0.01 0.01 0.01 0.01 0.01
MSLP
1016.40 1016.01 1015.52 1014.93 1014.26 1013.53 1012.76 1011.95 1011.09 1010.18 1009.22 1008.19 1007.12 1006.04 1004.99 1004.01 1003.17 1002.49 1001.99 1001.66 1001.49 1001.44 1001.46 1001.52 1001.60 1001.71 1001.85 1002.06 1002.38 1002.83 1003.43 1004.17 1005.01 1005.93 1006.87 1007.79 1008.65 1009.45 1010.18 1010.86 1011.51 1012.14 1012.77 1013.40
1015.54 1015.06 1014.52 1013.95 1013.35 1012.74 1012.09 1011.38 1010.58 1009.65 1008.57 1007.37 1006.05 1004.69 1003.35 1002.13 1001.10 1000.30 999.78 999.51 999.46 999.57 999.79 1000.04 1000.31 1000.57 1000.84 1001.15 1001.54 1002.04 1002.67 1003.42 1004.28 1005.20 1006.14 1007.06 1007.94 1008.75 1009.51 1010.23 1010.92 1011.59 1012.27 1012.93
1014.59 1014.01 1013.43 1012.88 1012.35 1011.84 1011.29 1010.66 1009.87 1008.89 1007.68 1006.26 1004.69 1003.03 1001.42 999.95 998.74 997.85 997.31 997.12 997.21 997.51 997.94 998.42 998.89 999.34 999.77 1000.20 1000.68 1001.25 1001.93 1002.71 1003.57 1004.49 1005.43 1006.35 1007.22 1008.04 1008.81 1009.55 1010.28 1010.99 1011.70 1012.40
1013.71 1013.04 1012.41 1011.86 1011.37 1010.92 1010.42 1009.81 1008.99 1007.91 1006.54 1004.90 1003.06 1001.13 999.25 997.57 996.22 995.26 994.74 994.64 994.88 995.38 996.03 996.74 997.43 998.07 998.67 999.24 999.84 1000.48 1001.21 1002.02 1002.90 1003.82 1004.75 1005.66 1006.52 1007.33 1008.11 1008.86 1009.60 1010.35 1011.09 1011.81
1013.06 1012.30 1011.62 1011.04 1010.55 1010.09 1009.58 1008.92 1008.01 1006.79 1005.23 1003.36 1001.28 999.11 997.01 995.17 993.72 992.73 992.25 992.25 992.65 993.33 994.19 995.10 996.00 996.82 997.58 998.30 999.00 999.73 1000.52 1001.37 1002.27 1003.19 1004.11 1005.00 1005.84 1006.64 1007.41 1008.16 1008.91 1009.66 1010.42 1011.16
1012.75 1011.91 1011.16 1010.53 1009.98 1009.46 1008.87 1008.10 1007.05 1005.66 1003.90 1001.82 999.53 997.17 994.92 992.98 991.47 990.48 990.06 990.15 990.68 991.51 992.53 993.61 994.65 995.63 996.52 997.36 998.16 998.97 999.82 1000.72 1001.64 1002.57 1003.49 1004.36 1005.19 1005.97 1006.71 1007.44 1008.18 1008.93 1009.69 1010.45
1012.83 1011.92 1011.10 1010.38 1009.74 1009.11 1008.39 1007.47 1006.25 1004.67 1002.73 1000.48 998.03 995.55 993.22 991.22 989.69 988.73 988.35 988.51 989.11 990.03 991.14 992.30 993.44 994.51 995.49 996.40 997.29 998.17 999.08 1000.02 1000.98 1001.93 1002.85 1003.72 1004.53 1005.28 1006.00 1006.71 1007.43 1008.16 1008.91 1009.67
1013.25 1012.30 1011.41 1010.60 1009.84 1009.06 1008.19 1007.10 1005.72 1003.98 1001.90 999.53 997.00 994.46 992.10 990.10 988.58 987.63 987.26 987.43 988.03 988.95 990.05 991.21 992.36 993.45 994.46 995.42 996.35 997.29 998.26 999.25 1000.25 1001.23 1002.16 1003.04 1003.84 1004.57 1005.27 1005.95 1006.64 1007.35 1008.08 1008.83
1013.91 1012.92 1011.97 1011.08 1010.21 1009.30 1008.28 1007.04 1005.52 1003.68 1001.52 999.11 996.57 994.05 991.71 989.73 988.23 987.27 986.86 986.96 987.47 988.28 989.28 990.35 991.41 992.44 993.43 994.39 995.34 996.32 997.34 998.37 999.42 1000.43 1001.40 1002.28 1003.09 1003.82 1004.50 1005.15 1005.81 1006.50 1007.21 1007.93
1014.62 1013.64 1012.66 1011.70 1010.74 1009.72 1008.59 1007.26 1005.66 1003.78 1001.63 999.26 996.79 994.34 992.08 990.14 988.64 987.63 987.12 987.07 987.40 988.01 988.80 989.68 990.59 991.50 992.41 993.33 994.28 995.28 996.33 997.41 998.49 999.55 1000.55 1001.46 1002.28 1003.02 1003.69 1004.34 1004.98 1005.64 1006.32 1007.02
1015.23 1014.27 1013.28 1012.30 1011.28 1010.21 1009.02 1007.66 1006.08 1004.24 1002.18 999.93 997.60 995.28 993.12 991.23 989.71 988.61 987.94 987.67 987.74 988.07 988.58 989.21 989.91 990.66 991.45 992.30 993.23 994.23 995.29 996.40 997.53 998.62 999.65 1000.59 1001.44 1002.19 1002.88 1003.52 1004.16 1004.80 1005.46 1006.15
1015.62 1014.69 1013.73 1012.73 1011.71 1010.63 1009.45 1008.13 1006.63 1004.92 1003.02 1000.97 998.82 996.68 994.64 992.80 991.25 990.03 989.16 988.62 988.38 988.39 988.59 988.94 989.40 989.97 990.64 991.40 992.28 993.26 994.33 995.45 996.59 997.71 998.76 999.73 1000.60 1001.38 1002.09 1002.76 1003.40 1004.04 1004.70 1005.37
1015.75 1014.86 1013.92 1012.95 1011.94 1010.89 1009.78 1008.56 1007.20 1005.69 1004.01 1002.19 1000.28 998.32 996.41 994.63 993.03 991.68 990.59 989.78 989.23 988.91 988.81 988.88 989.12 989.51 990.05 990.74 991.56 992.51 993.55 994.66 995.79 996.90 997.96 998.94 999.84 1000.65 1001.40 1002.09 1002.77 1003.43 1004.10 1004.77
1015.65 1014.79 1013.88 1012.94 1011.97 1010.99 1009.97 1008.89 1007.72 1006.43 1005.01 1003.45 1001.78 1000.03 998.25 996.52 994.88 993.41 992.12 991.06 990.22 989.62 989.24 989.09 989.13 989.37 989.80 990.41 991.16 992.06 993.05 994.12 995.20 996.28 997.32 998.29 999.20 1000.04 1000.83 1001.58 1002.30 1003.01 1003.70 1004.40
1015.43 1014.59 1013.70 1012.79 1011.87 1010.96 1010.05 1009.13 1008.16 1007.10 1005.93 1004.63 1003.20 1001.65 1000.01 998.33 996.67 995.10 993.65 992.39 991.33 990.50 989.92 989.58 989.48 989.61 989.95 990.48 991.17 991.99 992.91 993.89 994.90 995.91 996.90 997.85 998.76 999.63 1000.46 1001.26 1002.04 1002.81 1003.56 1004.30
1015.21 1014.38 1013.50 1012.61 1011.74 1010.90 1010.10 1009.33 1008.54 1007.71 1006.78 1005.71 1004.50 1003.12 1001.61 1000.00 998.34 996.70 995.15 993.75 992.54 991.56 990.85 990.40 990.21 990.26 990.52 990.98 991.59 992.32 993.13 994.01 994.91 995.83 996.74 997.65 998.54 999.42 1000.30 1001.17 1002.02 1002.86 1003.68 1004.48
1015.12 1014.28 1013.40 1012.53 1011.69 1010.92 1010.22 1009.58 1008.96 1008.31 1007.58 1006.72 1005.68 1004.46 1003.07 1001.52 999.89 998.23 996.63 995.15 993.87 992.81 992.03 991.52 991.28 991.28 991.49 991.88 992.40 993.02 993.71 994.45 995.23 996.03 996.85 997.70 998.57 999.47 1000.38 1001.31 1002.24 1003.16 1004.05 1004.92
1015.20 1014.35 1013.48 1012.62 1011.82 1011.10 1010.49 1009.96 1009.47 1008.97 1008.40 1007.69 1006.80 1005.71 1004.41 1002.93 1001.34 999.70 998.10 996.61 995.31 994.24 993.44 992.92 992.65 992.62 992.79 993.10 993.52 994.03 994.58 995.19 995.82 996.50 997.23 998.02 998.86 999.76 1000.71 1001.70 1002.69 1003.68 1004.65 1005.57
1015.43 1014.59 1013.73 1012.89 1012.14 1011.49 1010.95 1010.51 1010.13 1009.75 1009.29 1008.70 1007.91 1006.91 1005.69 1004.28 1002.74 1001.15 999.58 998.13 996.85 995.81 995.03 994.51 994.24 994.18 994.30 994.53 994.86 995.24 995.66 996.13 996.64 997.21 997.85 998.58 999.39 1000.30 1001.27 1002.30 1003.35 1004.39 1005.41 1006.38
1015.74 1014.92 1014.09 1013.30 1012.60 1012.03 1011.57 1011.22 1010.93 1010.63 1010.25 1009.73 1009.02 1008.09 1006.94 1005.59 1004.11 1002.57 1001.07 999.67 998.45 997.45 996.71 996.21 995.94 995.85 995.91 996.07 996.29 996.56 996.87 997.21 997.62 998.09 998.67 999.35 1000.14 1001.04 1002.03 1003.09 1004.16 1005.24 1006.28 1007.28
1016.02 1015.23 1014.45 1013.74 1013.13 1012.64 1012.28 1012.01 1011.79 1011.56 1011.24 1010.77 1010.11 1009.22 1008.12 1006.83 1005.41 1003.95 1002.52 1001.19 1000.04 999.10 998.39 997.92 997.64 997.53 997.53 997.62 997.75 997.93 998.13 998.39 998.71 999.12 999.65 1000.30 1001.07 1001.97 1002.96 1004.01 1005.10 1006.17 1007.22 1008.22
1016.15 1015.42 1014.73 1014.11 1013.61 1013.24 1012.97 1012.79 1012.64 1012.46 1012.18 1011.74 1011.10 1010.25 1009.19 1007.95 1006.60 1005.22 1003.87 1002.64 1001.56 1000.68 1000.02 999.56 999.28 999.14 999.09 999.11 999.18 999.28 999.42 999.61 999.88 1000.26 1000.75 1001.38 1002.14 1003.03 1004.00 1005.04 1006.10 1007.15 1008.18 1009.15
1016.08 1015.43 1014.85 1014.36 1013.98 1013.72 1013.57 1013.48 1013.39 1013.25 1012.99 1012.57 1011.95 1011.12 1010.10 1008.92 1007.64 1006.35 1005.09 1003.95 1002.95 1002.15 1001.53 1001.10 1000.81 1000.65 1000.56 1000.54 1000.55 1000.60 1000.70 1000.86 1001.10 1001.46 1001.95 1002.56 1003.31 1004.17 1005.12 1006.11 1007.13 1008.14 1009.11 1010.04
1015.83 1015.28 1014.81 1014.45 1014.21 1014.08 1014.03 1014.02 1013.99 1013.88 1013.63 1013.22 1012.61 1011.80 1010.81 1009.69 1008.50 1007.30 1006.15 1005.10 1004.21 1003.47 1002.91 1002.51 1002.23 1002.05 1001.94 1001.89 1001.87 1001.89 1001.96 1002.11 1002.35 1002.70 1003.18 1003.79 1004.52 1005.35 1006.25 1007.20 1008.16 1009.10 1010.01 1010.89
1015.48 1015.02 1014.68 1014.45 1014.35 1014.33 1014.38 1014.43 1014.44 1014.34 1014.10 1013.68 1013.07 1012.28 1011.34 1010.28 1009.18 1008.08 1007.04 1006.11 1005.32 1004.67 1004.17 1003.81 1003.55 1003.37 1003.25 1003.17 1003.13 1003.14 1003.21 1003.35 1003.60 1003.95 1004.43 1005.03 1005.73 1006.52 1007.37 1008.26 1009.15 1010.03 1010.88 1011.69
1015.12 1014.78 1014.55 1014.45 1014.46 1014.54 1014.66 1014.76 1014.78 1014.68 1014.43 1014.00 1013.40 1012.63 1011.72 1010.74 1009.73 1008.74 1007.82 1007.01 1006.33 1005.77 1005.34 1005.03 1004.79 1004.62 1004.49 1004.41 1004.36 1004.36 1004.43 1004.58 1004.82 1005.18 1005.65 1006.23 1006.90 1007.65 1008.45 1009.27 1010.10 1010.91 1011.71 1012.48
Thickness
5574 5577 5578 5580 5578 5579 5579 5578 5581 5582 5575 5572 5578 5582 5586 5586 5583 5584 5584 5583 5581 5580 5579 5576 5575 5574 5573 5573 5573 5573 5572 5572 5571 5571 5571 5570 5569 5569 5568 5568 5568 5568 5569 5570
5568 5569 5570 5568 5566 5565 5566 5567 5573 5572 5565 5564 5570 5575 5581 5581 5578 5578 5578 5577 5575 5573 5571 5568 5567 5566 5565 5565 5565 5565 5564 5564 5563 5563 5564 5563 5561 5559 5559 5558 5558 5558 5559 5560
5566 5564 5558 5557 5558 5558 5560 5562 5564 5561 5558 5557 5559 5575 5577 5575 5573 5571 5571 5570 5568 5565 5564 5561 5560 5558 5557 5556 5556 5556 5556 5555 5555 5555 5554 5552 5551 5550 5550 5549 5549 5549 5549 5550
5554 5551 5549 5549 5550 5549 5554 5552 5548 5546 5548 5555 5552 5563 5576 5571 5568 5567 5566 5564 5561 5558 5555 5553 5551 5550 5549 5547 5547 5547 5548 5547 5546 5546 5545 5545 5545 5545 5543 5541 5540 5539 5540 5541
5547 5541 5542 5544 5543 5540 5543 5537 5536 5535 5538 5539 5543 5543 5572 5564 5563 5564 5561 5558 5553 5549 5546 5544 5543 5541 5540 5539 5538 5538 5539 5538 5537 5537 5537 5536 5536 5535 5533 5532 5531 5531 5531 5531
5534 5531 5531 5533 5530 5529 5526 5527 5525 5525 5529 5533 5540 5541 5565 5566 5560 5558 5553 5548 5544 5540 5537 5535 5534 5532 5530 5529 5528 5529 5529 5528 5528 5527 5527 5526 5526 5525 5524 5523 5522 5521 5521 5520
5529 5526 5521 5520 5522 5520 5521 5526 5530 5532 5532 5543 5527 5530 5554 5556 5548 5544 5540 5537 5533 5530 5529 5527 5526 5524 5522 5521 5520 5520 5519 5519 5519 5518 5517 5516 5515 5515 5514 5513 5512 5511 5511 5510
5526 5527 5517 5513 5517 5517 5516 5521 5526 5531 5539 5543 5519 5529 5549 5540 5534 5530 5527 5525 5522 5520 5519 5518 5517 5515 5514 5513 5512 5511 5511 5510 5509 5509 5507 5506 5505 5503 5503 5502 5502 5501 5500 5500
5523 5520 5504 5502 5503 5508 5509 5512 5509 5508 5500 5511 5532 5533 5536 5532 5527 5523 5519 5517 5514 5512 5510 5508 5506 5506 5505 5503 5502 5501 5501 5500 5499 5499 5497 5496 5495 5494 5493 5491 5490 5490 5489 5488
5509 5503 5500 5493 5494 5492 5500 5499 5497 5501 5507 5521 5529 5528 5538 5528 5524 5518 5512 5509 5506 5503 5501 5498 5496 5495 5494 5493 5492 5491 5489 5489 5489 5488 5487 5486 5485 5483 5482 5481 5480 5479 5478 5477
5494 5493 5491 5488 5489 5494 5486 5486 5489 5493 5493 5507 5519 5532 5528 5520 5515 5509 5505 5500 5496 5493 5491 5489 5487 5485 5484 5483 5481 5479 5478 5478 5477 5476 5475 5474 5474 5472 5471 5470 5469 5468 5467 5467
5482 5486 5488 5487 5478 5476 5482 5485 5483 5487 5482 5482 5500 5518 5511 5506 5502 5498 5495 5490 5485 5483 5481 5478 5476 5475 5474 5473 5471 5469 5469 5468 5466 5465 5465 5464 5463 5461 5460 5459 5458 5457 5457 5456
5468 5470 5480 5484 5473 5464 5467 5469 5466 5465 5469 5475 5489 5511 5498 5494 5492 5489 5485 5481 5477 5473 5471 5469 5468 5466 5465 5463 5461 5460 5459 5458 5456 5455 5454 5453 5451 5450 5449 5448 5447 5446 5446 5446
5463 5461 5476 5492 5494 5476 5465 5461 5458 5459 5468 5476 5484 5499 5495 5490 5486 5483 5478 5474 5469 5465 5462 5460 5459 5457 5455 5453 5452 5450 5449 5447 5446 5444 5443 5442 5441 5440 5438 5437 5436 5435 5435 5435
5451 5455 5454 5462 5462 5460 5461 5461 5454 5454 5470 5474 5489 5484 5490 5484 5479 5476 5471 5466 5461 5458 5454 5452 5450 5448 5446 5443 5442 5440 5439 5437 5435 5434 5433 5432 5430 5429 5427 5426 5426 5425 5424 5424
5437 5442 5439 5445 5449 5448 5448 5456 5454 5453 5459 5465 5469 5475 5481 5474 5469 5466 5464 5458 5454 5451 5447 5444 5441 5439 5436 5433 5431 5430 5428 5426 5425 5424 5422 5421 5419 5418 5417 5416 5416 5415 5415 5415
5430 5429 5437 5451 5438 5437 5456 5463 5457 5455 5457 5460 5465 5475 5470 5464 5461 5459 5456 5451 5446 5443 5440 5436 5433 5429 5425 5422 5419 5418 5417 5415 5414 5413 5411 5410 5408 5407 5407 5406 5406 5406 5406 5406
5419 5421 5426 5432 5429 5443 5473 5456 5457 5454 5454 5452 5455 5460 5459 5457 5453 5449 5445 5441 5438 5434 5430 5427 5423 5420 5415 5411 5408 5406 5405 5404 5403 5402 5401 5399 5398 5398 5397 5397 5397 5397 5398 5398
5415 5416 5419 5422 5434 5453 5460 5448 5442 5440 5448 5449 5448 5451 5449 5442 5440 5443 5437 5432 5429 5425 5421 5417 5413 5409 5405 5402 5400 5397 5396 5395 5394 5393 5392 5391 5390 5390 5389 5389 5389 5389 5389 5389
5402 5405 5412 5414 5427 5445 5461 5441 5433 5435 5444 5448 5442 5442 5438 5431 5439 5443 5430 5423 5419 5415 5411 5407 5403 5399 5397 5394 5391 5389 5388 5387 5386 5385 5384 5383 5382 5382 5381 5381 5381 5381 5381 5381
5396 5399 5405 5412 5421 5441 5443 5426 5425 5437 5451 5440 5435 5433 5428 5426 5430 5425 5417 5412 5408 5404 5401 5397 5394 5391 5389 5386 5384 5382 5381 5381 5379 5377 5376 5375 5374 5374 5374 5373 5374 5374 5373 5374
5407 5407 5402 5409 5414 5434 5427 5418 5427 5438 5432 5427 5426 5423 5419 5417 5412 5408 5406 5402 5398 5394 5391 5389 5386 5383 5381 5379 5377 5376 5375 5373 5371 5370 5369 5368 5368 5367 5367 5367 5367 5367 5367 5367
5403 5412 5415 5415 5428 5427 5418 5420 5420 5418 5418 5418 5417 5413 5410 5406 5403 5400 5396 5393 5390 5386 5384 5381 5378 5375 5374 5372 5371 5370 5368 5366 5364 5363 5363 5362 5362 5361 5360 5360 5361 5361 5361 5361
5393 5389 5397 5400 5413 5413 5409 5408 5407 5407 5408 5409 5406 5403 5401 5398 5396 5392 5388 5385 5382 5379 5376 5373 5370 5368 5367 5365 5363 5362 5360 5358 5358 5357 5357 5356 5356 5356 5355 5355 5355 5355 5355 5355
5398 5384 5390 5395 5403 5401 5404 5403 5404 5402 5400 5398 5396 5393 5392 5390 5387 5384 5380 5378 5374 5371 5368 5365 5363 5362 5360 5358 5357 5355 5353 5352 5352 5351 5350 5350 5350 5350 5350 5350 5350 5349 5349 5349
5388 5386 5391 5405 5405 5400 5405 5403 5398 5394 5393 5392 5388 5385 5383 5381 5378 5375 5372 5370 5366 5364 5361 5358 5356 5355 5353 5352 5350 5349 5348 5347 5346 5345 5345 5345 5345 5345 5345 5345 5345 5344 5343 5342